contact:dominique.lefevre@mio.osupytheas.fr, maurice.libes@osupytheas.fr
Project:EMSO Ligure-ouest http://www.emso-fr.org/EMSO-France
Sensor Aquadopp, line 13 Serial AQD14315 
DOI : "https://doi.org/10.17882/74513; https://doi.org/10.17882/83244" 
Title:EMSO Ligure Ouest : Data ligne ALBATROSS capteur AQUADOPP - deploiement 2021
Id,Date,Profondeur,Latitude,Longitude,X_East,Y_North,Z_Up,Amplitude_X,Amplitude_Y,Amplitude_Z,Batterie,SoundSpeed,Heading,Pitch,Roll,Pressure,Temperature,Speed,Direction
, , m, degrees North, degrees East, m.s-1, m.s-1,m.s-1, 1, 1, 1, Volt, m.s-1, degree, degree, degree, dbar, degree_C, m.s-1, degree
09,2021-11-28T21:30:00,2000.0,42.79,6.0312,0.034,-0.026,0.02,63.0,58.0,59.0,12.5,1504.6,97.9,-1.0,1.0,1990.592,13.27,0.042,127.4
09,2021-11-28T22:00:00,2000.0,42.79,6.0312,0.021,-0.024,0.033,57.0,59.0,59.0,12.5,1504.6,97.3,-1.1,1.0,1990.574,13.27,0.031,138.8
09,2021-11-28T22:30:00,2000.0,42.79,6.0312,0.038,-0.027,-0.016,62.0,58.0,61.0,12.5,1504.6,95.5,-1.3,1.1,1990.559,13.27,0.046,125.4
09,2021-11-28T23:00:00,2000.0,42.79,6.0312,0.016,-0.007,0.014,61.0,58.0,62.0,12.5,1504.6,97.7,-1.0,1.1,1990.61,13.27,0.017,113.6
09,2021-11-28T23:30:00,2000.0,42.79,6.0312,0.027,-0.013,0.0,64.0,59.0,62.0,12.5,1504.6,89.7,-0.8,1.1,1990.603,13.27,0.029,115.0
09,2021-11-29T00:00:00,2000.0,42.79,6.0312,0.033,-0.018,0.006,61.0,59.0,63.0,12.5,1504.6,99.3,-1.0,1.0,1990.608,13.27,0.037,118.6
09,2021-11-29T00:30:00,2000.0,42.79,6.0312,0.043,-0.01,0.007,62.0,59.0,62.0,12.5,1504.6,99.6,-1.0,0.9,1990.589,13.27,0.044,103.1
09,2021-11-29T01:00:00,2000.0,42.79,6.0312,0.033,-0.019,0.007,63.0,59.0,60.0,12.5,1504.6,94.4,-1.1,1.0,1990.584,13.27,0.038,119.9
09,2021-11-29T01:30:00,2000.0,42.79,6.0312,0.046,0.0,0.032,64.0,60.0,62.0,12.5,1504.6,92.7,-0.8,1.1,1990.597,13.27,0.046,90.0
09,2021-11-29T02:00:00,2000.0,42.79,6.0312,0.038,-0.013,0.007,63.0,59.0,61.0,12.5,1504.6,101.5,-1.0,1.0,1990.604,13.27,0.04,108.9
09,2021-11-29T02:30:00,2000.0,42.79,6.0312,0.037,-0.004,0.0,65.0,60.0,61.0,12.5,1504.6,105.3,-0.9,1.0,1990.612,13.27,0.037,96.2
09,2021-11-29T03:00:00,2000.0,42.79,6.0312,0.022,-0.027,0.004,64.0,58.0,64.0,12.5,1504.6,115.5,-1.0,0.9,1990.66,13.27,0.034,140.8
09,2021-11-29T03:30:00,2000.0,42.79,6.0312,0.056,0.001,0.011,63.0,62.0,64.0,12.5,1504.6,93.7,-0.9,1.1,1990.629,13.27,0.056,89.0
09,2021-11-29T04:00:00,2000.0,42.79,6.0312,0.026,-0.014,-0.017,64.0,61.0,62.0,12.5,1504.6,97.0,-0.9,1.0,1990.607,13.27,0.029,118.3
09,2021-11-29T04:30:00,2000.0,42.79,6.0312,0.067,-0.02,0.0,64.0,64.0,64.0,12.5,1504.6,96.3,-1.1,1.2,1990.634,13.27,0.069,106.6
09,2021-11-29T05:00:00,2000.0,42.79,6.0312,0.05,-0.047,0.02,67.0,62.0,63.0,12.5,1504.6,114.9,-1.0,1.0,1990.584,13.27,0.068,133.2
09,2021-11-29T05:30:00,2000.0,42.79,6.0312,0.077,-0.028,0.007,64.0,63.0,63.0,12.5,1504.6,99.5,-1.1,1.1,1990.549,13.27,0.081,110.0
09,2021-11-29T06:00:00,2000.0,42.79,6.0312,0.038,-0.027,-0.008,65.0,61.0,64.0,12.5,1504.6,93.0,-0.7,1.1,1990.595,13.27,0.046,125.4
09,2021-11-29T06:30:00,2000.0,42.79,6.0312,0.053,-0.017,0.012,64.0,62.0,64.0,12.5,1504.6,108.9,-0.9,1.0,1990.605,13.27,0.055,107.8
09,2021-11-29T07:00:00,2000.0,42.79,6.0312,0.033,-0.025,-0.015,65.0,60.0,63.0,12.5,1504.6,104.0,-1.0,1.0,1990.59,13.27,0.041,127.1
09,2021-11-29T07:30:00,2000.0,42.79,6.0312,0.027,-0.042,-0.008,66.0,61.0,64.0,12.5,1504.6,103.8,-0.9,1.1,1990.599,13.27,0.049,147.3
09,2021-11-29T08:00:00,2000.0,42.79,6.0312,0.053,-0.028,0.004,66.0,62.0,63.0,12.5,1504.6,92.8,-1.1,1.0,1990.544,13.27,0.059,117.9
09,2021-11-29T08:30:00,2000.0,42.79,6.0312,0.041,-0.061,-0.016,63.0,60.0,62.0,12.5,1504.6,107.9,-0.6,1.1,1990.542,13.27,0.073,146.1
09,2021-11-29T09:00:00,2000.0,42.79,6.0312,0.043,-0.039,0.017,64.0,61.0,61.0,12.5,1504.6,111.5,-1.0,0.9,1990.591,13.27,0.058,132.2
09,2021-11-29T09:30:00,2000.0,42.79,6.0312,0.026,-0.026,0.018,63.0,61.0,62.0,12.5,1504.6,98.1,-1.0,1.1,1990.621,13.27,0.036,135.0
09,2021-11-29T10:00:00,2000.0,42.79,6.0312,0.053,-0.03,-0.015,64.0,59.0,65.0,12.5,1504.6,100.1,-1.2,1.1,1990.608,13.27,0.06,119.5
09,2021-11-29T10:30:00,2000.0,42.79,6.0312,0.028,-0.032,-0.021,66.0,60.0,64.0,12.5,1504.6,103.8,-1.0,1.1,1990.605,13.27,0.042,138.8
09,2021-11-29T11:00:00,2000.0,42.79,6.0312,0.037,-0.021,0.025,65.0,60.0,64.0,12.5,1504.6,102.7,-0.7,1.1,1990.633,13.27,0.042,119.6
09,2021-11-29T11:30:00,2000.0,42.79,6.0312,0.049,-0.039,-0.022,65.0,63.0,65.0,12.5,1504.6,109.8,-1.2,1.0,1990.618,13.27,0.062,128.5
09,2021-11-29T12:00:00,2000.0,42.79,6.0312,0.039,-0.051,-0.003,68.0,64.0,65.0,12.5,1504.6,104.1,-1.3,1.1,1990.66,13.27,0.064,142.6
09,2021-11-29T13:00:00,2000.0,42.79,6.0312,0.056,-0.03,-0.001,69.0,64.0,69.0,12.5,1504.6,105.9,-0.8,1.1,1990.694,13.27,0.063,118.2
09,2021-11-29T13:30:00,2000.0,42.79,6.0312,0.027,-0.045,-0.006,70.0,66.0,66.0,12.5,1504.6,109.0,-1.1,1.1,1990.709,13.27,0.052,149.0
09,2021-11-29T14:00:00,2000.0,42.79,6.0312,0.046,-0.045,-0.014,69.0,65.0,68.0,12.5,1504.6,108.0,-1.1,1.1,1990.76,13.27,0.064,134.4
09,2021-11-29T14:30:00,2000.0,42.79,6.0312,0.024,-0.035,-0.021,69.0,68.0,69.0,12.5,1504.6,107.5,-0.8,1.1,1990.734,13.27,0.042,145.6
09,2021-11-29T15:00:00,2000.0,42.79,6.0312,0.029,-0.056,0.011,71.0,64.0,67.0,12.5,1504.6,123.0,-1.1,1.0,1990.747,13.27,0.063,152.6
09,2021-11-29T15:30:00,2000.0,42.79,6.0312,0.037,-0.009,-0.019,69.0,64.0,71.0,12.5,1504.6,100.9,-1.2,1.1,1990.696,13.27,0.038,103.7
09,2021-11-29T16:00:00,2000.0,42.79,6.0312,0.022,-0.023,-0.007,73.0,66.0,69.0,12.5,1504.6,117.8,-1.1,1.1,1990.718,13.27,0.031,136.3
09,2021-11-29T16:30:00,2000.0,42.79,6.0312,0.04,-0.031,-0.009,70.0,67.0,68.0,12.5,1504.6,117.8,-1.0,1.1,1990.702,13.27,0.05,127.8
09,2021-11-29T17:00:00,2000.0,42.79,6.0312,0.045,-0.03,-0.01,71.0,70.0,69.0,12.5,1504.6,111.5,-1.0,1.0,1990.738,13.27,0.054,123.7
09,2021-11-29T17:30:00,2000.0,42.79,6.0312,0.041,-0.002,-0.01,71.0,66.0,70.0,12.5,1504.6,106.6,-0.9,1.0,1990.754,13.27,0.041,92.8
09,2021-11-29T18:00:00,2000.0,42.79,6.0312,0.031,-0.025,0.009,70.0,67.0,70.0,12.5,1504.6,123.3,-0.9,1.1,1990.678,13.27,0.039,128.9
09,2021-11-29T18:30:00,2000.0,42.79,6.0312,0.046,-0.008,-0.035,72.0,66.0,72.0,12.5,1504.6,113.4,-1.0,1.0,1990.658,13.27,0.046,99.9
09,2021-11-29T19:00:00,2000.0,42.79,6.0312,0.026,-0.022,0.004,74.0,68.0,72.0,12.5,1504.6,112.1,-1.1,1.0,1990.674,13.27,0.034,130.2
09,2021-11-29T19:30:00,2000.0,42.79,6.0312,0.04,-0.04,-0.009,74.0,69.0,74.0,12.5,1504.6,121.8,-1.0,1.1,1990.672,13.27,0.056,135.0
09,2021-11-29T20:00:00,2000.0,42.79,6.0312,0.045,-0.02,-0.006,73.0,71.0,74.0,12.5,1504.6,112.1,-1.2,1.2,1990.627,13.27,0.049,114.0
09,2021-11-29T20:30:00,2000.0,42.79,6.0312,0.039,-0.033,-0.009,75.0,69.0,70.0,12.5,1504.6,120.2,-1.0,1.1,1990.606,13.27,0.051,130.2
09,2021-11-29T21:00:00,2000.0,42.79,6.0312,0.033,-0.039,-0.044,72.0,70.0,71.0,12.5,1504.6,131.0,-1.1,1.0,1990.575,13.27,0.051,139.8
